Lid_Strength_Index
-0 -0 3 5 10 11 14 13 9 10 10 6 5 7 8 7 9 12 2 1 0 0 -0 -1 -1 -1 -1 -1 -1 -1 -1 -1 -1 -1 -1 -1 -1 -1 -1 -1 -1 -1 -1 -1 -1 -1 -1 -1 -1
3 3 4 7 11 14 14 10 11 9 7 5 5 6 7 8 5 4 3 0 -0 -0 0 -0 -1 -1 -1 -1 -1 -1 -1 -1 -1 -1 -1 -1 -1 -1 -1 -1 -1 -1 -1 -1 -1 -1 -1 -1 -1
3 5 7 10 12 14 14 10 9 7 6 6 7 5 6 7 4 3 1 0 -0 0 0 -0 -1 -1 -1 -1 -1 -1 -1 -1 -1 -1 -1 -1 -1 -1 -1 -1 -1 -1 -1 -1 -1 -1 -1 -1 -1
5 6 7 10 13 11 11 9 8 8 6 5 6 8 5 2 3 2 0 -0 0 0 0 -1 -1 -1 -1 -1 -1 -1 -1 -1 -1 -1 -1 -1 -1 -1 -2 -1 -1 -1 -1 -1 -1 -1 -1 -1 -1
8 8 11 12 12 10 10 7 7 8 7 7 6 8 7 3 1 1 1 0 1 0 0 -0 -1 -2 -2 -1 -1 -2 -2 -2 -2 -1 -1 -1 -2 -2 -2 -1 -1 -1 -1 -1 -1 -2 -1 -1 -1
10 9 13 14 11 9 10 6 7 8 7 7 7 7 7 2 2 2 1 0 -0 0 0 0 -1 -1 -2 -2 -2 -2 -2 -2 -2 -2 -2 -2 -2 -2 -2 -2 -1 -1 -1 -1 -1 -2 -2 -2 -1
11 11 12 12 11 10 8 6 7 8 7 7 5 9 6 4 2 1 1 0 0 0 0 0 0 -1 -1 -2 -2 -2 -2 -2 -2 -2 -2 -2 -2 -2 -2 -2 -2 -2 -2 -2 -2 -2 -2 -2 -2
9 9 11 12 11 12 8 7 6 6 7 4 4 9 8 4 1 1 1 1 1 0 0 0 0 0 0 0 -2 -2 -2 -2 -2 -2 -2 -1 -2 -2 -2 -1 -1 -2 -2 -2 -3 -2 -3 -3 -2
7 11 12 11 11 10 9 8 6 4 6 5 4 5 4 2 2 3 2 2 1 1 1 1 0 0 0 -0 -1 -1 -2 -2 -2 -1 -2 -1 -0 -0 -1 -4 -4 -4 -3 -2 -3 -4 -4 -4 -3
10 12 12 8 8 9 9 7 7 7 7 7 6 4 3 3 3 4 3 3 2 2 1 2 1 0 0 -0 0 -0 -0 -0 0 0 0 1 1 0 -1 -2 -3 -2 -3 -4 -3 -3 -2 -1 -0
11 12 11 8 6 7 9 8 6 7 9 7 7 5 5 4 4 3 3 3 3 2 2 1 2 1 1 1 3 1 0 0 0 1 1 1 1 1 1 2 2 1 -1 1 1 0 0 0 0
12 9 8 8 6 8 8 8 7 7 7 4 4 4 5 4 4 4 3 3 2 3 3 3 3 5 4 3 4 4 2 1 1 1 1 2 1 2 2 3 2 2 2 3 3 2 2 2 1
11 9 9 9 8 8 7 8 7 8 5 4 4 4 4 4 4 3 3 2 2 4 3 4 3 3 2 2 3 2 2 2 2 1 1 1 2 2 3 3 3 2 2 3 3 2 2 2 3
9 9 10 9 9 7 7 8 8 7 4 5 5 5 4 4 4 3 3 4 4 3 3 2 4 3 2 2 2 2 2 2 2 2 2 1 1 2 3 3 3 2 2 3 4 3 3 3 3
9 11 10 10 9 9 6 9 8 6 5 6 5 5 4 4 3 3 3 3 3 3 3 3 2 1 2 2 1 2 2 1 2 2 2 1 2 2 3 2 3 2 2 3 3 2 3 3 3
11 12 13 11 8 8 9 12 9 6 6 6 6 5 5 4 4 4 2 3 3 3 4 3 0 2 3 2 2 2 2 3 3 3 2 2 1 2 2 2 2 2 3 3 1 2 2 2 3
12 14 13 11 9 8 10 11 7 6 6 7 6 6 5 6 5 4 3 3 2 3 2 2 2 2 1 2 1 2 4 4 4 4 4 4 2 1 1 2 2 2 3 3 3 3 3 4 2
14 13 13 13 10 10 11 12 9 6 6 7 7 7 6 6 6 4 2 2 3 2 3 2 2 2 2 1 2 4 5 5 5 4 3 2 2 1 3 3 3 2 2 2 3 3 2 1 2
11 11 12 11 10 11 12 11 10 8 8 8 7 7 7 7 5 4 3 2 3 2 3 3 3 2 2 3 3 4 5 5 4 3 2 2 2 2 3 3 3 3 3 2 2 3 3 3 3
10 12 12 10 9 11 11 10 9 8 9 8 7 7 6 6 5 4 4 4 4 2 3 2 2 2 3 4 4 5 5 3 3 4 3 2 2 2 1 3 3 3 3 3 3 3 4 3 3
11 12 12 12 10 11 12 11 10 8 8 7 7 6 6 5 6 5 4 4 4 3 3 2 3 4 5 4 4 4 4 4 4 4 3 2 2 2 2 3 3 3 4 4 4 4 4 4 2
13 10 10 10 12 14 12 15 13 11 10 9 8 7 6 6 5 5 4 5 4 2 2 3 4 4 4 4 4 4 5 6 5 5 4 3 2 3 2 3 3 4 4 4 4 3 3 2 5
10 9 11 10 13 14 13 15 13 11 11 10 8 7 6 6 5 5 5 4 3 2 3 3 4 4 4 4 3 4 5 5 5 5 4 4 4 4 3 3 4 4 3 2 4 4 4 4 6
8 10 11 13 14 16 15 14 14 13 11 10 9 7 6 6 6 5 4 4 3 3 4 4 4 4 3 3 3 3 4 5 6 6 5 5 5 5 4 4 4 4 4 4 3 3 4 4 4
10 13 16 16 17 17 14 14 14 11 10 9 8 7 6 6 6 5 5 5 5 5 4 4 4 4 4 4 4 4 4 5 6 6 6 6 5 5 5 3 3 3 3 4 3 4 4 4 5
12 13 16 18 18 17 13 15 13 10 9 8 7 6 6 6 6 6 5 7 6 5 4 4 4 4 5 5 4 4 5 5 6 6 5 5 5 4 4 3 3 3 3 4 4 4 3 4 4
11 13 12 15 15 16 15 13 10 9 9 9 9 7 7 6 6 5 6 7 6 6 6 5 6 6 5 4 4 5 5 6 7 6 5 5 4 4 4 3 4 4 4 4 3 3 3 3 4
11 10 14 14 18 19 16 14 14 11 10 9 9 9 8 8 7 7 7 6 6 6 7 6 6 6 5 4 5 5 5 6 6 6 6 6 5 4 3 4 4 4 3 3 3 3 3 3 3
11 13 14 14 15 17 18 15 11 10 10 10 9 10 9 9 8 7 7 7 7 7 7 6 6 5 5 5 5 5 5 6 7 7 6 4 4 4 4 4 4 4 4 3 3 3 3 3 4
10 12 13 16 16 15 16 15 10 10 10 9 9 9 9 9 8 8 8 7 7 7 7 6 6 5 5 5 5 5 6 6 8 6 4 4 4 4 4 4 4 4 3 3 3 3 3 4 4